Regional Weather Roundup
Issued by NWS

Home | Current Version | Previous Version | Text Only | Print | Product List | Glossary On
Versions: 1 2 3 4 5 6 7 8 9 10 11 12 13 14 15 16 17 18 19 20 21 22 23 24 25 26 27 28 29 30 31 32 33 34 35 36 37 38 39 40 41 42 43 44 45 46 47 48 49 50
000
ASUS44 KJAN 031503
RWRMS

MISSISSIPPI HOURLY WEATHER ROUNDUP
NATIONAL WEATHER SERVICE JACKSON MS
900 AM CST TUE MAR 03 2015

NOTE: "FAIR: INDICATES FEW OR NO CLOUDS BELOW 12,000 FEET WITH NO
SIGNIFICANT WEATHER AND/OR OBSTRUCTIONS TO VISIBILITY.

MSZ001>002-007>008-010>013-018>021-025>028-034>036-031600-
NORTHWEST MISSISSIPPI

CITY           SKY/WX    TMP DP  RH WIND       PRES   REMARKS
CLARKSDALE     CLOUDY    46  46 100 S7        30.10S VSB 1/4
CLEVELAND      CLOUDY    46  46 100 S5        30.09S FOG
GREENWOOD      CLOUDY    58  57  97 S9        30.09F
GREENVILLE     CLOUDY    46  44  93 S7        30.08F FOG
OXFORD         FOG       48  48 100 S8        30.11S VSB 1/2
TUNICA         FOG       45  45 100 S6        30.09S VSB 1/2
$$

MSZ003>006-009-014>017-022>024-029>033-037>039-031600-
NORTHEAST MISSISSIPPI

CITY           SKY/WX    TMP DP  RH WIND       PRES   REMARKS
COLUMBUS AFB   FOG       54  54 100 S5        30.14R VSB 1/4
CORINTH        FOG       52  50  93 S8        30.11R VSB 3/4
GOLDN TRIANGLE FOG       52  52 100 S7        30.13S VSB 1/2
STARKVILLE     FOG       52  52 100 SE6       30.14S VSB 3/4
TUPELO         FOG       50  49  96 S9        30.12F VSB 1/4
$$

MSZ040-058-031600-
CENTRAL MISSISSIPPI

CITY           SKY/WX    TMP DP  RH WIND       PRES   REMARKS
JACKSON INTL   CLOUDY    62  61  96 S7        30.12S FOG
JACKSON HAWKNS FOG       59  58  96 S7        30.12S VSB 3/4
MERIDIAN KEY   FOG       56  55  97 CALM      30.15F VSB 3/4
MERIDIAN NAS   LGT RAIN  56  55  97 CALM      30.16S FOG
VICKSBURG      FOG       51  51 100 CALM      30.10S VSB 3/4
$$

MSZ059>079-031600-
SOUTH MISSISSIPPI

CITY           SKY/WX    TMP DP  RH WIND       PRES   REMARKS
BROOKHAVEN     CLOUDY    64  64 100 SE3       30.14S
HATTIESBURG    CLOUDY    65  64  97 SE3       30.16S FOG
MCCOMB         CLOUDY    66  66 100 S9        30.12F FOG
NATCHEZ        CLOUDY    63  63 100 SE10      30.11S
PINE BELT      CLOUDY    63  61  94 S6        30.16F VSB 1/4
$$

MSZ080>082-031600-
COASTAL MISSISSIPPI

CITY           SKY/WX    TMP DP  RH WIND       PRES   REMARKS
BAY ST LOUIS   CLOUDY    66  64  94 SE6       30.16S
BILOXI         CLOUDY    67  67 100 SE7       30.17R
PASCAGOULA     CLOUDY    65  64  97 SE5       30.18R
GULFPORT       CLOUDY    65  64  97 SE9       30.16S FOG
$$


USA.gov is the U.S. government's official web portal to all federal, state and local government web resources and services.